When you browse on this site, cookies collect data to enhance your experience and personalize the content and advertising you see.
Visit our Privacy Policy to learn more. By continuing to use the site, you agree to this use of cookies and data.
  • In Hungary
  • List of Countries
  • For 7 days
  • Water Temperature
  • Satellite Maps
  • Weather Map
  • News
  • Weather Widgets
  • user-avatar
    Login

    Hourly Weather Stachura

    Today, 21 May, Tuesday

    Time Temperature Precipitation Wind Pressure Humidity
    00:00 +14°C° 0 mm 2 mps 725 mmHg 93%
    01:00 +13°C° 0 mm 2 mps 725 mmHg 96%
    02:00 +13°C° 0 mm 2 mps 725 mmHg 95%
    03:00 +13°C° 0 mm 1 mps 725 mmHg 95%
    04:00 +11°C° 0 mm 0 mps 725 mmHg 95%
    05:00 +13°C° 0 mm 1 mps 725 mmHg 92%
    06:00 +14°C° 0 mm 1 mps 725 mmHg 89%
    07:00 +15°C° 0 mm 1 mps 725 mmHg 87%
    08:00 +16°C° 0.4 mm 2 mps 724 mmHg 83%
    09:00 +17°C° 0.4 mm 2 mps 724 mmHg 80%
    10:00 +18°C° 0.4 mm 3 mps 724 mmHg 76%
    11:00 +18°C° 1 mm 3 mps 724 mmHg 79%
    12:00 +18°C° 1 mm 2 mps 724 mmHg 81%
    13:00 +18°C° 1 mm 2 mps 723 mmHg 84%
    14:00 +18°C° 1.5 mm 3 mps 723 mmHg 84%
    15:00 +18°C° 1.5 mm 3 mps 723 mmHg 83%
    16:00 +18°C° 1.5 mm 3 mps 723 mmHg 83%
    17:00 +17°C° 1.6 mm 2 mps 722 mmHg 86%
    18:00 +16°C° 1.6 mm 2 mps 722 mmHg 89%
    19:00 +16°C° 1.6 mm 2 mps 722 mmHg 91%
    20:00 +15°C° 0.1 mm 2 mps 722 mmHg 93%
    21:00 +14°C° 0.1 mm 2 mps 722 mmHg 95%
    22:00 +13°C° 0.1 mm 1 mps 722 mmHg 98%
    23:00 +13°C° 0 mm 1 mps 722 mmHg 98%

    Tomorrow, 22 May, Wednesday

    Time Temperature Precipitation Wind Pressure Humidity
    00:00 +13°C° 0 mm 1 mps 722 mmHg 98%
    01:00 +13°C° 0 mm 1 mps 722 mmHg 98%
    02:00 +13°C° 0.1 mm 1 mps 722 mmHg 98%
    03:00 +13°C° 0.1 mm 1 mps 722 mmHg 98%
    04:00 +13°C° 0.1 mm 1 mps 722 mmHg 98%
    05:00 +13°C° 0.1 mm 1 mps 722 mmHg 97%
    06:00 +13°C° 0.1 mm 1 mps 722 mmHg 95%
    07:00 +13°C° 0.1 mm 1 mps 723 mmHg 94%
    08:00 +14°C° 0.2 mm 2 mps 723 mmHg 92%
    09:00 +15°C° 0.2 mm 2 mps 723 mmHg 89%
    10:00 +15°C° 0.2 mm 2 mps 724 mmHg 87%
    11:00 +16°C° 0.6 mm 2 mps 724 mmHg 84%
    12:00 +17°C° 0.6 mm 3 mps 724 mmHg 82%
    13:00 +18°C° 0.6 mm 3 mps 724 mmHg 79%
    14:00 +18°C° 1.1 mm 3 mps 724 mmHg 80%
    15:00 +18°C° 1.1 mm 3 mps 724 mmHg 80%
    16:00 +18°C° 1.1 mm 3 mps 724 mmHg 81%
    17:00 +17°C° 1 mm 3 mps 724 mmHg 84%
    18:00 +16°C° 1 mm 3 mps 724 mmHg 88%
    19:00 +16°C° 1 mm 2 mps 724 mmHg 92%
    20:00 +14°C° 0.2 mm 3 mps 725 mmHg 93%
    21:00 +13°C° 0.2 mm 3 mps 725 mmHg 95%
    22:00 +13°C° 0.2 mm 3 mps 725 mmHg 97%
    23:00 +13°C° 0.6 mm 3 mps 726 mmHg 97%

    Day after tomorrow, 23 May, Thursday

    Time Temperature Precipitation Wind Pressure Humidity
    00:00 +13°C° 0.6 mm 3 mps 726 mmHg 98%
    01:00 +12°C° 0.6 mm 3 mps 726 mmHg 98%
    02:00 +13°C° 0.5 mm 3 mps 726 mmHg 98%
    03:00 +13°C° 0.5 mm 3 mps 727 mmHg 97%
    04:00 +13°C° 0.5 mm 4 mps 727 mmHg 97%
    05:00 +13°C° 0.4 mm 4 mps 727 mmHg 96%
    06:00 +13°C° 0.4 mm 4 mps 728 mmHg 96%
    07:00 +13°C° 0.4 mm 4 mps 728 mmHg 95%
    08:00 +13°C° 0.2 mm 5 mps 728 mmHg 94%
    09:00 +14°C° 0.2 mm 5 mps 729 mmHg 94%
    10:00 +14°C° 0.2 mm 5 mps 729 mmHg 93%
    11:00 +14°C° 0.3 mm 5 mps 729 mmHg 93%
    12:00 +14°C° 0.3 mm 6 mps 730 mmHg 92%
    13:00 +14°C° 0.3 mm 6 mps 730 mmHg 92%
    14:00 +14°C° 0.2 mm 6 mps 730 mmHg 93%
    15:00 +13°C° 0.2 mm 6 mps 730 mmHg 93%
    16:00 +13°C° 0.2 mm 5 mps 730 mmHg 94%
    17:00 +13°C° 0.1 mm 5 mps 730 mmHg 93%
    18:00 +13°C° 0.1 mm 5 mps 730 mmHg 93%
    19:00 +13°C° 0.1 mm 5 mps 731 mmHg 93%
    20:00 +12°C° 0 mm 5 mps 731 mmHg 93%
    21:00 +12°C° 0 mm 4 mps 731 mmHg 92%
    22:00 +12°C° 0 mm 4 mps 731 mmHg 92%
    23:00 +12°C° 0 mm 4 mps 731 mmHg 92%

    24 May, Friday

    Time Temperature Precipitation Wind Pressure Humidity
    00:00 +11°C° 0 mm 4 mps 731 mmHg 92%
    01:00 +11°C° 0 mm 4 mps 731 mmHg 92%
    02:00 +11°C° 0.1 mm 4 mps 731 mmHg 91%
    03:00 +10°C° 0.1 mm 4 mps 731 mmHg 90%
    04:00 +10°C° 0.1 mm 3 mps 731 mmHg 89%
    05:00 +10°C° 0.1 mm 3 mps 731 mmHg 87%
    06:00 +10°C° 0.1 mm 3 mps 731 mmHg 85%
    07:00 +10°C° 0.1 mm 3 mps 732 mmHg 84%
    08:00 +11°C° 0 mm 4 mps 732 mmHg 77%
    09:00 +13°C° 0 mm 4 mps 732 mmHg 70%
    10:00 +14°C° 0 mm 4 mps 732 mmHg 64%
    11:00 +15°C° 0 mm 4 mps 732 mmHg 61%
    12:00 +17°C° 0 mm 4 mps 731 mmHg 59%
    13:00 +18°C° 0 mm 4 mps 731 mmHg 57%
    14:00 +18°C° 0 mm 4 mps 731 mmHg 58%
    15:00 +18°C° 0 mm 4 mps 731 mmHg 58%
    16:00 +18°C° 0 mm 3 mps 730 mmHg 59%
    17:00 +17°C° 0 mm 3 mps 730 mmHg 64%
    18:00 +16°C° 0 mm 2 mps 730 mmHg 69%
    19:00 +15°C° 0 mm 2 mps 730 mmHg 75%
    20:00 +14°C° 0 mm 2 mps 730 mmHg 77%
    21:00 +13°C° 0 mm 1 mps 730 mmHg 79%
    22:00 +12°C° 0 mm 1 mps 730 mmHg 82%
    23:00 +11°C° 0 mm 1 mps 730 mmHg 84%

    25 May, Saturday

    Time Temperature Precipitation Wind Pressure Humidity
    00:00 +11°C° 0 mm 1 mps 730 mmHg 86%
    01:00 +11°C° 0 mm 1 mps 729 mmHg 88%
    02:00 +10°C° 0 mm 2 mps 729 mmHg 89%
    03:00 +10°C° 0 mm 2 mps 729 mmHg 91%
    04:00 +9°C° 0 mm 2 mps 729 mmHg 92%
    05:00 +11°C° 0 mm 3 mps 729 mmHg 85%
    06:00 +13°C° 0 mm 3 mps 729 mmHg 79%
    07:00 +14°C° 0 mm 4 mps 729 mmHg 72%
    08:00 +15°C° 0.3 mm 4 mps 729 mmHg 70%
    09:00 +16°C° 0.3 mm 5 mps 729 mmHg 68%
    10:00 +17°C° 0.3 mm 5 mps 729 mmHg 67%
    11:00 +17°C° 0.4 mm 6 mps 729 mmHg 65%
    12:00 +17°C° 0.4 mm 6 mps 729 mmHg 64%
    13:00 +17°C° 0.4 mm 6 mps 729 mmHg 63%
    14:00 +17°C° 0 mm 6 mps 729 mmHg 63%
    15:00 +16°C° 0 mm 6 mps 729 mmHg 63%
    16:00 +16°C° 0 mm 6 mps 729 mmHg 63%
    17:00 +14°C° 0 mm 5 mps 729 mmHg 68%
    18:00 +13°C° 0 mm 4 mps 729 mmHg 74%
    19:00 +12°C° 0 mm 3 mps 729 mmHg 79%
    20:00 +12°C° 0 mm 2 mps 729 mmHg 83%
    21:00 +10°C° 0 mm 2 mps 730 mmHg 88%
    22:00 +9°C° 0 mm 2 mps 730 mmHg 92%
    23:00 +9°C° 0 mm 2 mps 730 mmHg 93%

    26 May, Sunday

    Time Temperature Precipitation Wind Pressure Humidity
    00:00 +8°C° 0 mm 3 mps 729 mmHg 93%
    01:00 +8°C° 0 mm 3 mps 729 mmHg 94%
    02:00 +8°C° 0 mm 3 mps 729 mmHg 92%
    03:00 +7°C° 0 mm 4 mps 729 mmHg 91%
    04:00 +7°C° 0 mm 4 mps 729 mmHg 90%
    05:00 +7°C° 0 mm 5 mps 729 mmHg 88%
    06:00 +8°C° 0 mm 5 mps 729 mmHg 86%
    07:00 +9°C° 0 mm 6 mps 729 mmHg 84%
    08:00 +9°C° 0.1 mm 6 mps 729 mmHg 80%
    09:00 +9°C° 0.1 mm 7 mps 729 mmHg 76%
    10:00 +10°C° 0.1 mm 7 mps 729 mmHg 73%
    11:00 +10°C° 0 mm 7 mps 729 mmHg 72%
    12:00 +9°C° 0 mm 7 mps 728 mmHg 71%
    13:00 +9°C° 0 mm 7 mps 728 mmHg 70%
    14:00 +10°C° 0 mm 7 mps 728 mmHg 69%
    15:00 +10°C° 0 mm 7 mps 728 mmHg 68%
    16:00 +10°C° 0 mm 6 mps 728 mmHg 67%
    17:00 +10°C° 0 mm 6 mps 728 mmHg 70%
    18:00 +9°C° 0 mm 5 mps 728 mmHg 72%
    19:00 +8°C° 0 mm 4 mps 728 mmHg 75%
    20:00 +7°C° 0 mm 4 mps 728 mmHg 78%
    21:00 +7°C° 0 mm 4 mps 728 mmHg 82%
    22:00 +7°C° 0 mm 3 mps 728 mmHg 85%
    23:00 +7°C° 0 mm 3 mps 728 mmHg 85%
    Show more